STARLINK-36596, 67670

Orbit data source: Space-Track

STARLINK-36596, 67670 is a payload satellite owned by SpaceX/Seattle (US) in SSO that was launched on Mon, 02 Feb 2026 UTC via an FALCON 9 launch vehicle from the Air Force Western Test Range (AFWTR). Payload-class satellites include a variety of spacecraft equipped with specific instruments for various scientific and technological missions. These include communications satellites like Starlink; space stations such as the ISS; scientific satellites like the Hubble; Earth observation satellites from companies like Planet Labs, Umbra, and HawkEye 360; GPS; miniature CubeSats for education and research; and military/defense satellites.

Loading next visibility...
Identifier
67670, 2026-022Y
Orbit
SSO
Country
Flag of USUS
Related business
Manufacturer
SpaceX/Seattle
Mission
Operational spacecraft
Bus & Motor
STARLINK V2MO, Unknown motor
Mass
575 kg wet, ~530 kg dry
Launch date (UTC)
2026-02-02 (2 months ago)
Launch vehicle
FALCON 9
Launch site
Air Force Western Test Range (AFWTR)
Object type
Payload
Rocket body
Debris
Shape & HBR
Unknown shape, 17.7 m
Radar Cross Section
RCS unknown

Expand to show TLE details & history
Last TLE update: 11 hours ago

TLE from 11 hours ago
0 STARLINK-36596
1 67670U 26022Y   26095.16668981 -.00018852  00000-0 -58305-3 0  9995
2 67670  97.2844 129.1654 0001363  85.9092 242.8426 15.33445246  6030
Epoch: 2026-04-05T04:00Z
TLE epoch observation values (Epoch: 2026-04-05T04:00:01.999Z)
Latitude
-31.25075°
Longitude
-119.89472°
Altitude
477.811 km
Speed
7.625 km/s
True Right ascension
08h 54m 21s
True Declination
-31° 05' 32"
Sunlit
Object was in full shadow at epoch
Visualization orbit readout
Latitude
Unknown
Longitude
Unknown
Altitude
Unknown
Speed
Unknown
Apparent Right ascension
Unknown
Apparent Declination
Unknown
Sunlit
N/A
Visualization observer readout
Local Sidereal Time
20:57:29
Azimuth
Unknown
Elevation
Unknown
Doppler factor
Unknown
Orbital elements
Apogee altitude
463.418 km
Perigee altitude
461.553 km
Semi-major axis
6,840.622 km
Eccentricity
0.00014
Inclination
97.2844°
RAAN
129.1654°
Arg. of periapsis
85.9092°
True anomaly
242.8287°
Mean anomaly
242.8426°
Eccentric anomaly
242.83565°
Mean motion
3.83619 °/min
Orbital period
93.84 mins
BSTAR
-0.00058305
Loading maneuver chart data...
Computing Atmospheric mass density...
Loading historical data...
Loading historical data...
Loading historical data...
Loading historical data...
Loading historical data...
Loading historical data...
Loading historical data...

Documentation

Showing up to 5 results
|